Location: Saratoga Springs
(43.0831°N, 73.7850°W)
Time: 22:20:41
(UTC-04:00)

Vanguard 1 Rocket - Pass Details

Date: 19 April 2024
Orbit: 651 x 4220 km, 34.3° (Epoch: 20 May)

Event Time Altitude Azimuth Distance (km) Brightness Sun altitude
Rises 18:15:47 0° 207° (SSW) 2,959 10.4 14.9°
Reaches altitude 10° 18:18:49 10° 182° (S) 2,162 9.4 14.3°
Maximum altitude 18:21:34 15° 146° (SE) 2,019 8.9 13.8°
Drops below altitude 10° 18:24:52 10° 112° (ESE) 2,669 9.3 13.2°
Sets 18:29:21 0° 91° (E) 4,161 10.1 12.4°
